Tracking 35237 objects as of 6-Sep-2026
HD Live streaming from Space Station
objects crossing your sky now

STARLINK-3801

Track STARLINK-3801 now!
10-day predictions
STARLINK-3801 is classified as:


NORAD ID: 52356
Int'l Code: 2022-045AB
Launch date: April 29, 2022
Source: United States (US)
Launch site: AIR FORCE EASTERN TEST RANGE (AFETR)
Your satellite tracking list
Your tracking list is empty




NASA's NSSDC Master Catalog

Two Line Element Set (TLE):
1 52356U 22045AB  26248.98256961  .00000303  00000-0  20100-4 0  9995
2 52356  53.1587  97.2777 0001116  79.6689 280.4439 15.34393839243170
Source of the keplerian elements: AFSPC